Tracking 30743 objects as of 25-Jun-2025
HD Live streaming from Space Station
objects crossing your sky now

ESA/GOES

Track ESA/GOES now!
ESA/GOES is classified as:


NORAD ID: 9931
Int'l Code: 1977-029A
Perigee: 2,864.3 km
Apogee: 38,304.2 km
Inclination: 27.0 °
Period: 734.0 minutes
Semi major axis: 26955 km
RCS: 4.0849 m2 (large)
Launch date: April 20, 1977
Source: European Space Agency (ESA)
Launch site: AIR FORCE EASTERN TEST RANGE (AFETR)
Your satellite tracking list
Your tracking list is empty




NASA's NSSDC Master Catalog

Two Line Element Set (TLE):
1 09931U 77029A   25175.35157134  .00000027  00000-0  00000-0 0  9995
2 09931  26.9741 104.3971 6573855 206.6739  94.0324  1.96172695344830
Source of the keplerian elements: AFSPC